Regional Weather Roundup
Issued by NWS

Home | Current Version | Previous Version | Text Only | Print | Product List | Glossary Off
Versions: 1 2 3 4 5 6 7 8 9 10 11 12 13 14 15 16 17 18 19 20 21 22 23 24 25 26 27 28 29 30 31 32 33 34 35 36 37 38 39 40 41 42 43 44 45 46 47 48 49 50

000
ASUS43 KMKX 231811
RWRWI

WISCONSIN REGIONAL WEATHER ROUNDUP
NATIONAL WEATHER SERVICE MILWAUKEE/SULLIVAN WI
100 PM CDT TUE MAY 23 2017

NOTE: "FAIR" INDICATES FEW OR NO CLOUDS BELOW 12,000 FEET WITH NO
SIGNIFICANT WEATHER AND/OR OBSTRUCTIONS TO VISIBILITY.

WIZ001-002-006>008-014>016-023>028-231900-
NORTHWEST WISCONSIN

CITY           SKY/WX    TMP DP  RH WIND       PRES   REMARKS
SUPERIOR ARPT  NOT AVBL
ASHLAND        CLOUDY    55  46  71 NE13      29.88S
6HR MIN TEMP:  46; 6HR MAX TEMP:  55; 6HR PCP: TRACE;

HAYWARD        CLOUDY    56  44  64 NE9       29.84F
6HR MIN TEMP:  44; 6HR MAX TEMP:  56; 6HR PCP:  0.04;

SIREN          CLOUDY    56  44  63 E8        29.84F
6HR MIN TEMP:  45; 6HR MAX TEMP:  56;

CUMBERLAND     CLOUDY    54  45  71 N6        29.82F
RICE LAKE      CLOUDY    54  49  81 N7        29.83F
6HR MIN TEMP:  48; 6HR MAX TEMP:  54;

CHETEK         CLOUDY    55  47  75 CALM      29.82F
6HR MIN TEMP:  48; 6HR MAX TEMP:  55;

LADYSMITH      CLOUDY    54  46  73 NE6       29.84F
6HR MIN TEMP:  46; 6HR MAX TEMP:  55;

EAU CLAIRE     CLOUDY    53  48  83 NE7       29.79F
6HR MIN TEMP:  49; 6HR MAX TEMP:  53; 6HR PCP:  0.04;

MENOMONIE      LGT RAIN  54  49  83 N8        29.81F
6HR MIN TEMP:  50; 6HR MAX TEMP:  55; 6HR PCP:  0.01;

NEW RICHMOND   LGT RAIN  56  45  68 NE9       29.82F
6HR MIN TEMP:  48; 6HR MAX TEMP:  56;

OSCEOLA        CLOUDY    60  45  57 NE9       29.84F
6HR MIN TEMP:  48; 6HR MAX TEMP:  60;

$$

WIZ003>005-009-010-017-018-231900-
NORTH CENTRAL WISCONSIN

CITY           SKY/WX    TMP DP  RH WIND       PRES   REMARKS
MANITOWISH WTR CLOUDY    51  47  87 E3        29.84F
6HR MIN TEMP:  42; 6HR MAX TEMP:  51; 6HR PCP:  0.01;

ARBOR VITAE    CLOUDY    52  49  90 N5        29.83F
6HR MIN TEMP:  44; 6HR MAX TEMP:  52; 6HR PCP:  0.02;

WOODRUFF       CLOUDY    52  49  90 N5        29.83F
6HR MIN TEMP:  44; 6HR MAX TEMP:  52; 6HR PCP:  0.02;

RHINELANDER    CLOUDY    55  47  74 E8        29.83F
6HR MIN TEMP:  47; 6HR MAX TEMP:  55; 6HR PCP:  0.11;

EAGLE RIVER    CLOUDY    54  42  64 NE8       29.83F
6HR MIN TEMP:  44; 6HR MAX TEMP:  54;

LAND O LAKES   CLOUDY    51  46  83 CALM      29.85F
6HR MIN TEMP:  43; 6HR MAX TEMP:  51; 6HR PCP:  0.03;

PHILLIPS       CLOUDY    53  43  68 E9        29.83S
6HR MIN TEMP:  44; 6HR MAX TEMP:  53; 6HR PCP:  0.01;

TOMAHAWK       CLOUDY    53  45  76 N7        29.83F
6HR MIN TEMP:  44; 6HR MAX TEMP:  53;

MEDFORD        CLOUDY    56  47  72 NE10G18   29.79F
6HR MIN TEMP:  46; 6HR MAX TEMP:  56; 6HR PCP:  0.02;

MERRILL        CLOUDY    56  46  71 NE9       29.81F
6HR MIN TEMP:  46; 6HR MAX TEMP:  56; 6HR PCP:  0.02;

$$

WIZ029-030-035-036-043>047-231900-
CENTRAL WISCONSIN

CITY           SKY/WX    TMP DP  RH WIND       PRES   REMARKS
WAUSAU         CLOUDY    55  46  71 E9        29.78F
6HR MIN TEMP:  48; 6HR MAX TEMP:  55; 6HR PCP: TRACE;

MOSINEE        CLOUDY    55  46  71 NE15G21   29.80S
MARSHFIELD     CLOUDY    54  42  64 E17       29.77S
6HR MIN TEMP:  49; 6HR MAX TEMP:  56;

STEVENS POINT  CLOUDY    55  44  67 NE16G24   29.79S
6HR MIN TEMP:  48; 6HR MAX TEMP:  55;

WAUPACA        CLOUDY    57  48  72 NE6       29.78S
6HR MIN TEMP:  53; 6HR MAX TEMP:  59; 6HR PCP:  0.07;

WAUTOMA        CLOUDY    57  52  83 MISG        N/A
6HR MIN TEMP:  51; 6HR MAX TEMP:  59;

WISC RAPIDS    CLOUDY    57  49  74 E12       29.78F
6HR MIN TEMP:  50; 6HR MAX TEMP:  58;

CAMP DOUGLAS   CLOUDY    57  52  82 E6        29.74F
$$

WIZ011>013-019>022-031-037>040-048>050-231900-
NORTHEAST WISCONSIN

CITY           SKY/WX    TMP DP  RH WIND       PRES   REMARKS
ANTIGO         CLOUDY    53  45  74 E8        29.81F
6HR MIN TEMP:  46; 6HR MAX TEMP:  53;

SHAWANO        LGT RAIN  54  49  84 NE9       29.81F
6HR MIN TEMP:  51; 6HR MAX TEMP:  54;

OCONTO         CLOUDY    52  49  88 NE7       29.81F
6HR MIN TEMP:  48; 6HR MAX TEMP:  52; 6HR PCP:  0.03;

STURGEON BAY   CLOUDY    53  46  77 NE10      29.81F
6HR MIN TEMP:  49; 6HR MAX TEMP:  54; 6HR PCP: TRACE;

GREEN BAY      CLOUDY    53  49  86 NE15      29.79F
6HR MIN TEMP:  53; 6HR MAX TEMP:  56;

MANITOWOC      CLOUDY    51  46  83 NE8       29.79F
APPLETON       CLOUDY    55  46  71 NE13G20   29.76F
CLINTONVILLE   CLOUDY    54  46  76 NE9       29.79F
OSHKOSH        CLOUDY    58  51  78 NE14      29.74F
6HR MIN TEMP:  56; 6HR MAX TEMP:  61;

$$

WIZ032>034-041-042-053>061-231900-
SOUTHWEST WISCONSIN

CITY           SKY/WX    TMP DP  RH WIND       PRES   REMARKS
LA CROSSE      CLOUDY    58  51  78 NE8       29.74F
6HR MIN TEMP:  55; 6HR MAX TEMP:  60;

SPARTA         CLOUDY    58  51  77 N9        29.75F
6HR MIN TEMP:  49; 6HR MAX TEMP:  58;

VIROQUA        CLOUDY    55  54  97 MISG      29.73F
6HR MIN TEMP:  51; 6HR MAX TEMP:  56; 6HR PCP:  0.15;

BOSCOBEL       CLOUDY    62  52  69 SW6       29.73F
6HR MIN TEMP:  54; 6HR MAX TEMP:  63;

PRAIRIE DU CHI CLOUDY    59  50  72 W6        29.73F
6HR MIN TEMP:  52; 6HR MAX TEMP:  61; 6HR PCP:  0.01;

PLATTEVILLE    CLOUDY    58  53  83 W3        29.74F
6HR MIN TEMP:  53; 6HR MAX TEMP:  58;

$$

WIZ056-057-062-063-064-067-068-231900-
SOUTH CENTRAL WISCONSIN

CITY           SKY/WX    TMP DP  RH WIND       PRES   REMARKS
REEDSBURG      CLOUDY    58  54  86 N6        29.73F
6HR MIN TEMP:  53; 6HR MAX TEMP:  61;

BARABOO/DELLS  PTSUNNY   61  48  63 CALM      29.73F
6HR MIN TEMP:  53; 6HR MAX TEMP:  61;

LONE ROCK      CLOUDY    62  52  69 SE7       29.73F
6HR MIN TEMP:  54; 6HR MAX TEMP:  62;

MINERAL POINT  CLOUDY    59  54  82 S5        29.74F
MADISON        CLOUDY    62  50  64 S7        29.72F
6HR MIN TEMP:  56; 6HR MAX TEMP:  63;

MIDDLETON      CLOUDY    62  51  67 SW5       29.74F
6HR MIN TEMP:  56; 6HR MAX TEMP:  63;

WATERTOWN      CLOUDY    62  54  75 S7        29.74F
6HR MIN TEMP:  56; 6HR MAX TEMP:  63;

MONROE         CLOUDY    61  50  67 CALM      29.73F
JANESVILLE     PTSUNNY   63  54  72 SW8       29.73F
$$

WIZ051-052-058>065-066-070>072-231900-
SOUTHEAST WISCONSIN

CITY           SKY/WX    TMP DP  RH WIND       PRES   REMARKS
MILWAUKEE      CLOUDY    66  52  60 SW12      29.75F
6HR MIN TEMP:  60; 6HR MAX TEMP:  66;

WAUKESHA       CLOUDY    59  52  77 W5        29.76F
MILWAUKEE/TIMM PTSUNNY   63  52  67 SW7       29.76F
RACINE         CLOUDY    66  50  56 SE10      29.76F
6HR MIN TEMP:  60; 6HR MAX TEMP:  67;

KENOSHA        CLOUDY    64  51  62 S14       29.75F
6HR MIN TEMP:  59; 6HR MAX TEMP:  67;

FOND DU LAC    TSTM      59  54  83 N8        29.74S
6HR MIN TEMP:  57; 6HR MAX TEMP:  64; 6HR PCP:  0.03;

SHEBOYGAN      CLOUDY    53  51  93 NE13      29.76F
6HR MIN TEMP:  52; 6HR MAX TEMP:  59;

WEST BEND      CLOUDY    61  54  77 S8        29.75F
JUNEAU         CLOUDY    63  55  75 S7        29.75F
6HR MIN TEMP:  55; 6HR MAX TEMP:  63;

$$

LSZ147-162-231900-
LAKE SUPERIOR

STATION/POSITION TIME  TEMP    WIND        PRES    WAVE
                       AIR SEA DIR/SP/G            HT/PER
                 (UTC) (F)     (DEG/KT/KT) (MB)    (FT/S)
W MID LAKE BUOY  1650   40 37   10/  6/  8 1013.1R   0
DEVILS ISLAND    1700   42      50/ 12/ 13 1013.1S
PORT WING        1740   44      30/ 16/ 18 1011.9F
SAXON HARBOR     1740   43     360/  5/  7 1011.9F
$$

LMZ867-665-643>646-231900-
LAKE MICHIGAN

STATION/POSITION TIME  TEMP    WIND        PRES    WAVE
                       AIR SEA DIR/SP/G            HT/PER
                 (UTC) (F)     (DEG/KT/KT) (MB)    (FT/S)
CHAMBERS ISLAND  1730   48      20/  9/ 10 1009.5F
N MID LAKE BUOY  1750   42 39   50/  8/ 10 1010.8F   1
NORTHPORT PIER   1740   52      80/  6/ 11 1009.8F
SISTER BAY       1736   54     100/  8/ 12



USA.gov is the U.S. government's official web portal to all federal, state and local government web resources and services.